Airfield :
LOGIN :

Register | Disclaimer

   EN    FR    IT 

 










Legend :    VFR   Marginal VFR   IFR   Intensive IFR   Very Intensive IFR
Visi :
Ceiling :
>= 8 km
>= 3000ft
5 to 8 km
1000 to 3000 ft
1500m to 5 km
500 to 1000 ft
800 to 1500m
200 to 500 ft
< 800m
< 200 ft
Symbols :   Thunderstorms  Fog  Heavy snow  Heavy precipitations  Wind > 20 kt
SIGMETs :     Misc.  Thunderstorms  Icing  Turbulence  Mountain Waves  Volcanic Ashes







- Airport Elevation : 121 ft
- IATA code : HUY
- Download approach charts


EGNJ - Humberside

CURRENT METAR :
  • 191420Z 10008KT 7000 SCT020 BKN033 16/11 Q1010

EXPIRED METARs :
  • 191350Z 11008KT 7000 SCT020 BKN033 16/12 Q1010
  • 191320Z 10008KT 7000 SCT020 BKN033 16/12 Q1010
  • 191250Z 11009KT 7000 SCT020 BKN033 16/12 Q1010
  • 191220Z VRB03KT 8000 SCT029 BKN035 17/09 Q1010
  • 191150Z VRB02KT 8000 FEW027 SCT032 17/10 Q1010

TAF TAF EGNJ
Valid from the 19 at 12:00 until the 19 at 21:00 UTC


191104Z 1912/1921 10004KT 9999 SCT030
PROB30
TEMPO 1912/1920 6000 SHRA
ATIS : +44 1652 682 020
No reported NOTAMs for that airfield.



MET'MAP, your aeronautical weather chart ! - Copyright ORBIFLY December 2007 - Disclaimer

ORBIFLY MET'MAP TEAM :

Programming & Development : Alexandra Zaïnal
Concept & Development : Baudouin d'Aumeries
Co-Development & Prog : Marc-Olivier Méhu
Technical & hardware support : Manuel Goepfert

Contact : metmap@orbifly.com




SOURCES & CREDITS :

   NOAA